FLOCK 2B-14

Last updated on Mon Aug 22 2016 01:39:33 GMT+0000 (Coordinated Universal Time)

1 40980U 98067HN 16234.85965201 .00207999 28974-4 42304-3 0 9999 2 40980 51.6289 46.7645 0004840 268.0274 92.0181 15.99045208 50202

Satellite not in orbit